Gracewood, GA

7:13 PM EDT on August 29, 2016 (GMT -0400)
Augusta Regional At Bush

Weather History for KAGS - December, 2013

Change the Weather History Date:

Wednesday, December 18, 2013

  Actual Average Record
Temperature  
Mean Temperature 43 °F 46 °F  
Max Temperature 57 °F 59 °F 82 °F (2008)
Min Temperature 28 °F 34 °F 17 °F (1953)
Degree Days  
Heating Degree Days 22 19  
Month to date heating degree days 257 301  
Since 1 July heating degree days 716 723  
Cooling Degree Days 0 0  
Month to date cooling degree days 4 0  
Year to date cooling degree days 1869 2086  
Moisture  
Dew Point 26 °F    
Average Humidity 56    
Maximum Humidity 92    
Minimum Humidity 19    
Precipitation  
Precipitation 0.00 in 0.11 in 1.75 in (2009)
Month to date precipitation 3.11 1.90  
Year to date precipitation 51.73 42.08  
Sea Level Pressure  
Sea Level Pressure 30.26 in    
Wind  
Wind Speed 5 mph (NW)    
Max Wind Speed 13 mph    
Max Gust Speed 17 mph    
Visibility 10 miles    
Events      
T = Trace of Precipitation, MM = Missing Value Source: NWS Daily Summary

Daily Weather History Graph

Daily Weather History Graph

Search for Another Location

Airport or City:

Trip Planner

Search our weather history database for the weather conditions in past years. The results will help you decide how hot, cold, wet, or windy it might be!

Date:

Astronomy

Dec. 18, 2013 Rise Set
Actual Time 7:26 AM EST 5:23 PM EST
Civil Twilight 6:58 AM EST 5:50 PM EST
Nautical Twilight 6:27 AM EST 6:21 PM EST
Astronomical Twilight 5:57 AM EST 6:51 PM EST
Moon 6:49 PM EST (12/18) 8:08 AM EST (12/18)
Length of Visible Light 10h 51m
Length of Day
9h 56m
Full, 98% of the Moon is Illuminated
Dec 18
Full
Dec 25
Last Quarter
Jan 1
New
Jan 7
First Quarter
Jan 15
Full

Hourly Weather History & Observations

Time (EST) Temp. Windchill Dew Point Humidity Pressure Visibility Wind Dir Wind Speed Gust Speed Precip Events Conditions
12:53 AM 50.0 °F - 33.1 °F 52% 30.13 in 10.0 mi West 8.1 mph - N/A   Clear
1:53 AM 48.0 °F - 34.0 °F 58% 30.14 in 10.0 mi West 9.2 mph - N/A   Clear
2:53 AM 46.9 °F - 34.0 °F 61% 30.16 in 10.0 mi West 9.2 mph - N/A   Clear
3:53 AM 45.0 °F 41.8 °F 33.1 °F 63% 30.17 in 10.0 mi WSW 5.8 mph - N/A   Clear
4:53 AM 42.1 °F 37.7 °F 32.0 °F 67% 30.19 in 10.0 mi WNW 6.9 mph - N/A   Clear
5:53 AM 41.0 °F 36.4 °F 28.0 °F 60% 30.22 in 10.0 mi NW 6.9 mph - N/A   Clear
6:53 AM 39.9 °F 36.7 °F 27.0 °F 60% 30.25 in 10.0 mi NW 4.6 mph - N/A   Clear
7:53 AM 39.0 °F 34.0 °F 26.1 °F 60% 30.27 in 10.0 mi NW 6.9 mph - N/A   Clear
8:53 AM 45.0 °F 41.2 °F 25.0 °F 46% 30.29 in 10.0 mi NNW 6.9 mph - N/A   Clear
9:53 AM 48.0 °F - 21.9 °F 36% 30.31 in 10.0 mi NNW 11.5 mph - N/A   Clear
10:53 AM 50.0 °F - 21.9 °F 33% 30.32 in 10.0 mi NNW 4.6 mph - N/A   Clear
11:53 AM 52.0 °F - 21.0 °F 30% 30.30 in 10.0 mi North 4.6 mph - N/A   Clear
12:53 PM 54.0 °F - 19.9 °F 26% 30.28 in 10.0 mi Variable 4.6 mph - N/A   Clear
1:53 PM 55.0 °F - 15.1 °F 21% 30.27 in 10.0 mi NNW 9.2 mph - N/A   Clear
2:53 PM 57.0 °F - 16.0 °F 20% 30.27 in 10.0 mi NNW 10.4 mph - N/A   Clear
3:53 PM 57.0 °F - 17.1 °F 21% 30.27 in 10.0 mi NNE 4.6 mph - N/A   Clear
4:53 PM 54.0 °F - 18.0 °F 24% 30.28 in 10.0 mi Calm Calm - N/A   Clear
5:53 PM 44.1 °F - 28.0 °F 53% 30.28 in 10.0 mi Calm Calm - N/A   Clear
6:53 PM 39.0 °F - 27.0 °F 62% 30.30 in 10.0 mi Calm Calm - N/A   Clear
7:53 PM 35.1 °F - 27.0 °F 72% 30.32 in 10.0 mi Calm Calm - N/A   Clear
8:53 PM 34.0 °F - 28.0 °F 79% 30.32 in 10.0 mi Calm Calm - N/A   Clear
9:53 PM 33.1 °F - 28.0 °F 82% 30.33 in 10.0 mi Calm Calm - N/A   Clear
10:53 PM 30.0 °F - 28.0 °F 92% 30.33 in 10.0 mi Calm Calm - N/A   Clear
11:53 PM 30.0 °F - 28.0 °F 92% 30.33 in 10.0 mi Calm Calm - N/A   Clear